Temperature
18 18 18 18 18 18 18 18 18 18 18 18 18 18 18 18 17 18 18 18 18 17 17 17 17 17 17 17 17 16 16 16 16 16 16 16 16 16 16 16 16 16 15
18 18 18 18 18 18 18 18 18 18 18 18 18 17 17 17 17 17 18 17 17 17 17 17 17 17 17 17 17 16 16 16 16 16 16 16 16 16 16 16 16 15 15
18 18 18 18 18 18 18 18 18 18 18 18 18 17 17 17 17 17 17 17 17 17 17 17 17 17 17 17 17 17 16 16 16 16 16 16 16 16 16 16 15 15 15
18 18 18 18 18 18 18 18 18 18 18 18 18 17 17 17 17 17 17 17 17 17 17 17 17 17 17 17 17 17 16 16 16 16 16 16 16 16 16 16 15 15 15
18 18 18 18 18 18 18 18 18 18 18 18 17 17 17 17 17 17 17 17 17 17 17 17 17 17 17 17 17 16 16 16 16 16 16 16 16 16 16 16 15 15 15
18 18 18 18 18 18 18 18 18 18 17 18 17 17 17 17 17 17 17 17 17 17 17 17 17 17 17 17 17 16 16 16 16 16 16 16 16 16 16 16 15 15 15
18 18 18 18 18 18 18 18 18 18 17 17 17 17 17 17 17 17 17 17 17 17 17 17 17 17 17 16 16 16 16 16 16 16 16 16 16 16 16 16 15 15 15
18 18 18 18 18 18 18 18 17 17 17 17 17 17 17 17 17 17 17 17 17 17 17 17 17 17 17 17 17 16 16 16 16 16 16 16 16 16 16 16 15 15 15
18 18 18 18 18 18 18 18 18 17 17 17 17 17 17 18 18 18 18 17 17 17 17 17 17 17 17 17 16 16 16 16 16 16 16 16 16 16 16 15 15 15 15
18 18 18 18 18 18 18 18 18 17 18 18 17 17 18 18 18 18 18 18 18 17 17 17 17 17 17 17 17 16 16 16 16 16 16 16 16 16 15 15 15 15 15
18 18 18 18 18 18 18 18 17 17 18 18 18 18 18 18 18 18 18 18 18 18 18 18 17 17 17 17 17 17 16 16 16 16 16 16 16 16 16 15 15 15 15
18 18 18 18 18 18 18 18 17 17 17 18 18 18 18 18 18 18 18 18 18 18 18 18 18 17 17 17 17 17 17 16 16 16 16 16 16 16 16 15 15 15 15
18 18 18 18 18 18 18 18 17 17 17 17 17 18 18 18 18 18 18 18 18 18 18 18 18 18 17 17 17 17 17 16 16 16 16 16 16 16 16 16 15 15 15
18 18 18 18 18 18 17 17 17 17 17 17 17 17 17 17 18 18 18 18 18 17 18 18 18 18 17 17 17 17 16 16 16 16 16 16 16 16 16 16 15 15 15
18 17 17 17 17 17 17 17 17 17 17 17 17 17 17 17 17 17 17 17 17 17 17 17 17 17 17 17 17 17 17 16 16 16 16 16 16 16 16 16 15 15 15
17 17 17 17 17 17 17 17 17 17 17 17 17 17 17 17 17 17 17 17 17 17 17 17 17 17 17 17 17 17 16 16 16 16 16 16 16 16 16 15 15 15 15
17 17 17 17 17 17 17 17 17 17 17 17 16 17 16 16 17 17 17 17 17 17 17 17 17 17 17 17 17 16 16 16 16 16 16 16 15 15 15 15 15 15 15
17 17 17 17 17 17 17 16 16 16 16 16 16 16 16 16 16 16 17 17 16 16 16 16 16 16 16 16 16 16 16 16 15 15 15 15 15 15 15 15 15 15 14
16 16 16 16 16 16 16 16 16 16 16 16 16 16 16 16 16 16 16 16 16 16 16 16 16 15 15 15 15 15 15 15 15 15 15 15 15 14 14 14 14 14 14
16 16 16 16 16 16 16 16 16 16 16 16 16 16 16 16 16 16 16 16 16 15 15 15 15 15 15 15 15 15 15 15 14 14 14 14 14 14 14 14 14 14 13
16 15 16 16 15 15 15 15 15 15 15 15 15 15 15 15 15 15 15 15 15 15 15 15 15 14 14 14 14 14 14 14 14 14 14 14 14 13 13 13 13 13 13
15 15 15 15 15 15 15 15 15 15 15 15 15 15 15 15 15 15 15 15 14 14 14 14 14 14 14 14 13 13 13 13 13 13 13 13 13 13 13 12 12 12 12
15 15 15 15 15 14 15 15 15 15 15 15 14 14 14 14 14 14 14 14 14 14 13 13 13 13 13 13 13 13 13 12 12 12 12 12 12 12 12 12 12 11 11
14 14 14 14 14 14 14 14 14 14 14 14 14 14 14 13 13 13 13 13 13 13 13 12 12 12 12 12 12 12 12 12 11 11 11 11 11 11 11 11 11 10 10
14 14 14 14 14 14 14 14 14 14 14 13 13 13 13 13 13 13 13 13 12 12 12 11 11 11 11 11 11 11 11 11 11 10 10 10 10 10 10 10 10 9 9
13 13 13 13 13 13 13 13 13 13 13 13 12 12 12 12 12 12 12 12 12 11 11 11 11 10 10 10 10 10 10 10 10 9 9 9 9 9 9 9 9 9 9
Wind_Speed
6 6 6 7 7 7 6 5 5 4 3 3 5 8 8 12 13 13 13 15 15 14 13 13 12 12 11 11 11 10 11 10 10 10 10 9 9 9 9 9 8 8 8
9 7 5 6 6 8 8 7 5 4 3 3 5 8 10 13 13 13 13 14 15 14 13 13 13 12 12 11 11 11 11 11 11 10 10 9 9 9 9 8 8 7 7
12 8 5 5 6 8 7 5 3 3 3 3 4 6 9 11 12 12 13 13 13 14 14 13 13 13 12 12 11 11 11 11 11 11 11 10 10 9 9 9 8 7 7
14 9 5 5 7 6 5 3 3 3 2 3 3 3 5 8 10 12 12 13 13 12 14 14 14 13 13 12 12 12 12 12 12 12 11 11 10 10 10 9 9 8 8
13 10 6 5 7 5 3 4 3 3 3 3 3 3 3 4 6 10 10 13 14 14 14 15 15 15 14 13 13 13 13 13 13 13 12 12 12 12 11 11 10 10 9
12 10 6 6 6 4 3 3 3 3 3 3 3 2 2 3 4 5 8 11 13 14 15 14 15 15 16 15 14 14 14 14 14 14 13 13 13 13 13 13 12 11 11
12 9 5 5 5 5 5 5 4 3 2 2 3 2 2 1 3 5 6 7 10 14 15 15 15 15 14 17 17 16 15 15 15 14 14 14 14 14 14 14 13 13 13
11 10 7 6 5 5 6 5 4 3 2 3 4 3 1 3 3 4 4 6 7 10 12 15 16 16 16 15 17 18 17 16 15 15 16 16 16 16 16 15 15 14 14
12 9 8 6 6 6 6 6 6 6 4 2 3 4 4 4 3 3 3 4 5 5 7 12 15 17 17 16 16 18 19 18 17 16 16 16 16 16 17 16 16 15 15
10 10 9 8 6 6 6 6 6 4 5 3 2 2 3 4 3 2 3 2 4 6 7 8 11 15 17 16 17 18 20 20 19 18 17 17 17 17 17 17 16 16 16
8 9 10 8 7 6 7 7 6 5 5 5 4 2 2 1 2 3 2 3 3 4 5 6 8 12 16 17 17 18 20 21 20 20 19 18 18 17 17 17 16 16 15
6 8 8 8 7 6 7 7 6 7 5 5 4 4 4 3 3 3 3 3 3 4 4 4 5 8 12 15 17 18 21 22 22 21 20 19 18 17 17 17 16 16 16
5 8 8 7 6 6 7 7 7 7 6 5 5 4 4 4 4 4 3 3 2 3 2 2 4 7 10 13 15 18 19 21 21 21 20 19 19 18 18 17 17 16 16
7 7 8 8 7 7 7 7 6 6 6 6 6 5 3 3 3 4 4 4 1 2 2 3 2 4 7 10 13 14 14 18 20 20 20 19 19 18 18 17 17 16 16
6 7 7 8 7 7 7 7 6 6 6 6 5 5 4 3 3 3 3 4 4 2 3 3 2 2 5 8 10 11 12 14 17 18 18 19 18 18 17 17 16 15 15
5 6 7 7 7 7 6 6 5 5 5 5 4 4 4 3 2 2 2 3 4 4 3 3 3 2 2 4 7 9 10 12 15 16 17 17 17 17 16 16 15 14 13
4 5 6 6 6 6 6 6 5 6 6 5 5 5 5 4 3 2 2 2 2 3 3 3 1 1 0 0 1 4 6 7 9 12 14 15 15 16 15 14 13 12 12
3 3 4 5 5 5 6 6 6 5 5 5 5 4 4 3 2 2 2 2 2 3 3 3 1 1 1 1 0 0 1 4 5 7 11 13 14 14 14 13 13 12 11
1 1 3 4 4 5 5 5 5 4 3 3 4 4 3 3 2 1 2 2 1 1 2 2 1 1 1 1 2 1 2 2 1 2 5 8 10 11 11 10 10 10 10
2 2 1 2 3 4 4 5 4 4 3 2 2 3 3 3 3 2 2 2 2 2 2 2 1 1 1 1 2 1 2 2 2 3 3 2 1 3 5 6 7 7 8
3 3 3 2 2 2 3 5 5 5 4 4 4 3 3 4 3 2 2 2 3 2 2 2 2 1 1 1 1 1 1 1 2 2 2 3 4 4 2 0 2 4 5
4 5 4 4 4 3 5 7 6 5 5 5 5 4 4 5 6 6 4 4 4 3 3 2 2 2 1 1 1 0 0 1 2 3 2 2 3 2 2 3 2 2 0
5 6 5 6 6 6 8 9 8 6 6 5 5 5 4 5 5 5 7 8 7 6 4 4 3 2 1 1 1 1 1 1 0 3 1 1 2 2 3 4 5 4 3
5 5 5 6 6 7 8 9 10 8 7 7 6 5 5 5 5 6 7 8 7 7 6 5 4 3 2 1 1 1 1 2 1 3 3 1 2 2 3 6 8 7 6
6 5 6 6 6 6 7 9 10 7 8 8 7 7 6 6 7 8 8 8 7 6 9 11 11 10 10 9 6 3 3 3 2 3 3 2 2 2 2 3 7 9 8
6 7 7 7 6 6 7 8 9 6 7 7 7 7 10 9 9 8 7 7 7 5 5 7 8 9 9 10 10 6 3 2 1 1 3 2 2 2 2 3 4 8 8
Wind_Direction
166 169 173 181 187 187 190 192 201 220 233 221 171 149 151 155 156 160 167 168 167 167 167 168 166 164 163 164 164 164 162 159 158 158 158 158 157 155 154 152 152 151 153
170 169 173 181 188 192 193 191 191 190 191 160 147 146 149 154 159 165 169 174 176 176 177 176 175 175 176 176 175 174 173 172 170 170 170 169 169 167 166 165 165 166 162
171 171 172 178 188 193 189 178 173 160 153 143 141 146 149 157 164 171 174 178 182 186 187 186 184 185 186 187 187 187 185 182 182 181 182 182 182 181 181 181 182 181 180
173 170 169 177 180 176 164 155 147 134 127 130 142 157 154 159 170 177 180 184 187 192 196 196 194 193 195 196 197 197 196 194 193 193 193 194 194 194 195 194 196 196 197
175 170 171 174 165 153 153 164 140 141 145 147 158 161 165 165 173 182 186 192 195 198 200 203 202 201 204 206 206 206 204 203 203 203 204 205 206 206 206 206 207 207 209
175 167 170 173 161 147 153 149 143 146 154 160 150 141 180 187 185 188 194 198 201 204 205 205 206 209 214 215 214 213 211 210 210 211 211 213 213 213 214 214 215 216 218
175 169 172 170 164 165 170 162 150 150 148 125 92 45 349 299 220 205 204 200 204 205 206 208 208 211 217 221 221 219 217 216 214 215 216 217 218 218 219 220 221 223 223
178 179 172 176 173 169 171 166 151 148 157 146 135 113 9 332 306 235 211 204 205 203 203 209 210 212 216 219 222 222 221 221 220 219 219 219 220 222 223 224 225 227 228
185 183 180 176 178 174 178 180 165 156 168 187 159 148 158 218 268 297 250 220 204 201 206 208 211 215 217 220 222 224 224 223 224 224 223 222 223 225 226 227 228 230 231
186 188 186 183 182 182 183 189 177 166 158 177 196 195 181 167 167 254 303 263 226 213 210 212 214 216 216 217 218 221 223 224 225 226 226 225 225 226 227 229 232 233 234
192 190 186 185 185 184 188 191 180 176 170 173 181 185 184 177 160 160 237 277 276 243 218 209 207 211 213 214 217 221 223 224 226 227 227 227 227 226 228 231 234 235 236
201 198 188 185 185 184 187 193 190 185 185 181 181 177 174 177 187 174 202 235 250 263 238 216 211 212 213 214 219 222 223 225 226 227 228 228 228 228 229 231 234 237 238
204 204 197 191 191 190 190 188 189 194 189 183 192 195 195 201 180 172 174 208 241 274 279 243 225 219 218 214 221 225 226 226 225 226 227 228 230 231 232 234 236 239 242
209 203 197 196 195 193 197 190 195 199 192 194 201 196 202 212 188 179 175 170 204 290 290 268 262 222 216 210 217 222 226 226 225 226 227 229 231 233 235 238 240 242 244
208 202 197 201 201 198 197 190 196 200 193 199 202 198 205 217 198 197 186 173 170 212 257 264 264 252 224 212 216 214 219 222 224 227 230 232 233 234 236 237 239 242 245
203 192 195 196 198 197 193 188 190 194 192 205 200 191 203 216 200 195 192 182 178 184 223 251 243 261 237 217 214 206 214 219 220 224 228 231 232 234 235 237 239 240 243
191 190 190 188 192 191 186 182 187 190 197 210 210 197 208 205 198 201 177 158 176 175 208 256 268 305 89 222 182 214 220 217 225 227 228 233 235 235 236 238 240 240 241
190 194 187 185 190 187 181 179 188 188 195 210 213 196 209 205 194 198 177 175 187 188 188 212 279 359 11 275 156 165 236 226 228 238 236 237 237 239 238 239 240 240 241
161 169 168 179 186 186 180 173 171 167 178 199 192 184 195 172 185 195 182 186 191 162 142 156 183 7 1 21 44 13 11 344 264 267 248 243 242 243 244 242 239 237 238
120 120 132 166 179 179 174 166 156 150 151 157 150 157 162 165 183 192 192 187 157 130 124 131 133 48 2 349 48 25 357 350 355 13 23 55 140 223 229 228 226 228 232
99 94 88 87 112 151 173 164 159 151 143 124 103 104 116 118 124 152 178 180 158 143 132 134 136 98 22 17 342 314 324 331 359 11 28 34 53 56 46 86 225 229 231
86 89 85 82 83 96 109 122 128 131 127 119 107 91 85 80 81 79 89 114 133 151 161 152 156 158 206 236 269 93 128 45 335 342 44 13 39 35 30 48 58 70 69
88 86 84 83 83 80 92 102 103 109 105 106 107 100 90 79 76 81 77 75 71 75 117 147 145 175 184 253 185 70 71 93 279 314 43 15 9 10 19 35 38 38 31
94 92 88 89 90 81 87 95 96 92 89 86 89 93 92 75 70 87 91 80 68 58 71 85 102 91 77 51 91 145 146 110 40 7 36 65 357 356 10 22 28 28 22
95 90 89 90 89 78 84 95 97 94 88 77 70 68 78 77 68 81 92 93 82 64 68 77 79 70 62 56 58 70 62 75 46 358 6 63 352 348 2 359 14 22 21
97 92 81 75 81 78 80 96 101 103 98 88 71 60 63 73 72 75 90 97 91 75 71 66 57 51 48 46 49 60 83 89 88 19 346 38 4 21 13 340 346 6 13
Height
1562 1564 1566 1568 1570 1571 1572 1574 1575 1576 1577 1578 1579 1580 1581 1581 1582 1583 1583 1583 1584 1584 1585 1586 1586 1587 1587 1588 1589 1589 1590 1591 1592 1592 1593 1594 1594 1595 1596 1596 1597 1597 1598
1562 1564 1566 1568 1569 1571 1573 1574 1576 1577 1577 1578 1579 1580 1581 1582 1582 1583 1584 1584 1584 1584 1585 1586 1586 1587 1588 1588 1589 1590 1590 1591 1592 1593 1593 1594 1595 1595 1596 1597 1597 1598 1598
1561 1563 1565 1567 1569 1571 1573 1574 1576 1577 1578 1579 1579 1580 1581 1582 1583 1583 1584 1584 1584 1585 1585 1586 1586 1587 1588 1588 1589 1590 1590 1591 1592 1592 1593 1594 1595 1596 1596 1597 1597 1598 1598
1561 1563 1565 1567 1569 1570 1572 1574 1575 1576 1578 1578 1579 1580 1581 1582 1582 1583 1584 1584 1584 1585 1585 1586 1586 1587 1587 1588 1589 1589 1590 1590 1591 1592 1593 1594 1594 1595 1596 1596 1597 1598 1598
1560 1562 1564 1566 1568 1569 1571 1573 1574 1576 1577 1578 1579 1580 1581 1581 1582 1582 1583 1584 1584 1584 1585 1585 1586 1586 1587 1587 1588 1588 1589 1589 1590 1591 1592 1592 1593 1594 1595 1596 1596 1597 1597
1558 1561 1563 1565 1566 1568 1570 1572 1573 1575 1576 1577 1578 1579 1580 1581 1581 1582 1582 1583 1583 1584 1584 1585 1585 1586 1586 1586 1587 1587 1588 1588 1589 1589 1590 1591 1592 1593 1594 1594 1595 1596 1596
1557 1559 1561 1563 1565 1567 1568 1570 1572 1573 1575 1576 1577 1578 1579 1580 1580 1581 1581 1581 1582 1583 1583 1584 1584 1585 1585 1585 1585 1586 1586 1587 1587 1588 1589 1589 1590 1591 1592 1593 1593 1594 1594
1555 1557 1559 1561 1563 1565 1567 1568 1570 1571 1573 1574 1576 1577 1578 1579 1578 1579 1579 1580 1580 1581 1582 1582 1583 1583 1584 1584 1584 1584 1585 1585 1585 1586 1587 1587 1588 1589 1590 1591 1591 1592 1593
1553 1555 1557 1559 1561 1563 1564 1566 1568 1569 1570 1572 1574 1575 1576 1575 1576 1577 1577 1578 1578 1579 1579 1580 1581 1581 1582 1582 1582 1583 1583 1583 1584 1584 1584 1585 1586 1587 1588 1588 1589 1590 1590
1550 1552 1554 1556 1558 1560 1562 1564 1565 1567 1568 1570 1571 1573 1574 1574 1574 1574 1575 1575 1576 1576 1577 1578 1578 1579 1579 1580 1580 1581 1581 1581 1582 1582 1582 1583 1583 1584 1585 1586 1586 1587 1587
1547 1549 1551 1553 1555 1557 1559 1561 1563 1564 1566 1567 1569 1570 1571 1571 1572 1572 1572 1573 1574 1574 1575 1575 1575 1576 1577 1577 1578 1578 1579 1579 1579 1579 1580 1580 1581 1581 1582 1583 1583 1584 1584
1544 1546 1548 1550 1552 1554 1556 1558 1560 1562 1563 1565 1566 1567 1568 1569 1569 1570 1570 1570 1570 1571 1572 1572 1573 1573 1574 1574 1575 1576 1576 1577 1577 1577 1577 1577 1578 1578 1579 1579 1580 1581 1581
1540 1542 1545 1546 1548 1550 1553 1555 1557 1559 1560 1562 1563 1565 1566 1566 1567 1568 1568 1568 1568 1569 1569 1569 1570 1571 1571 1572 1572 1573 1573 1574 1574 1574 1574 1574 1575 1575 1576 1576 1577 1577 1578
1537 1539 1541 1543 1545 1547 1549 1551 1553 1555 1557 1559 1560 1561 1562 1563 1564 1565 1565 1566 1566 1566 1566 1566 1567 1567 1568 1569 1569 1569 1570 1570 1570 1570 1571 1571 1571 1572 1572 1572 1573 1573 1574
1534 1536 1537 1539 1541 1543 1545 1548 1550 1552 1553 1555 1556 1558 1559 1560 1561 1561 1562 1563 1564 1563 1563 1563 1563 1564 1564 1565 1565 1566 1566 1567 1567 1567 1567 1567 1568 1568 1569 1569 1569 1570 1570
1530 1531 1533 1535 1537 1539 1541 1543 1545 1547 1549 1551 1552 1553 1554 1556 1557 1558 1558 1559 1560 1560 1560 1560 1560 1561 1561 1562 1562 1562 1563 1563 1563 1563 1563 1564 1564 1565 1565 1565 1566 1566 1566
1525 1527 1529 1531 1532 1535 1537 1538 1540 1543 1545 1546 1548 1549 1550 1552 1553 1554 1555 1555 1556 1557 1556 1557 1557 1558 1558 1558 1558 1559 1559 1559 1559 1560 1560 1560 1560 1560 1561 1561 1562 1562 1562
1522 1523 1524 1526 1528 1530 1532 1534 1536 1538 1540 1542 1543 1545 1546 1548 1549 1550 1550 1551 1552 1552 1553 1553 1554 1554 1555 1555 1555 1555 1556 1556 1556 1556 1556 1556 1556 1556 1557 1557 1557 1557 1557
1518 1519 1521 1522 1524 1526 1528 1530 1532 1534 1536 1537 1539 1540 1542 1543 1544 1545 1546 1547 1547 1548 1549 1549 1550 1551 1551 1552 1552 1552 1552 1553 1553 1553 1552 1552 1552 1552 1552 1552 1552 1552 1552
1516 1516 1517 1518 1520 1522 1524 1526 1528 1531 1533 1534 1536 1537 1538 1539 1540 1541 1542 1543 1544 1544 1545 1546 1546 1547 1548 1548 1549 1549 1549 1549 1549 1549 1549 1548 1548 1548 1548 1548 1548 1548 1547
1514 1515 1516 1517 1517 1519 1521 1523 1525 1528 1530 1532 1533 1534 1536 1537 1537 1538 1538 1539 1540 1540 1541 1542 1543 1544 1544 1545 1545 1545 1545 1546 1546 1545 1545 1545 1545 1544 1544 1544 1544 1543 1543
1514 1515 1516 1516 1517 1518 1519 1521 1524 1526 1528 1529 1531 1532 1533 1534 1534 1535 1535 1536 1536 1537 1538 1539 1540 1540 1541 1542 1542 1542 1542 1542 1542 1543 1542 1542 1541 1541 1541 1540 1540 1539 1539
1514 1515 1516 1517 1517 1518 1520 1522 1524 1525 1526 1527 1529 1530 1531 1532 1532 1533 1533 1533 1534 1535 1536 1537 1537 1537 1538 1538 1539 1539 1539 1539 1539 1539 1539 1538 1538 1538 1538 1537 1536 1536 1535
1515 1516 1516 1517 1519 1520 1521 1522 1523 1525 1525 1527 1528 1529 1530 1531 1531 1531 1532 1532 1532 1533 1533 1533 1534 1535 1535 1535 1536 1536 1536 1536 1536 1536 1536 1536 1535 1535 1535 1534 1533 1532 1532
1516 1517 1517 1519 1520 1521 1522 1523 1524 1525 1526 1527 1528 1529 1529 1530 1530 1531 1531 1531 1531 1532 1532 1533 1533 1533 1533 1533 1533 1534 1533 1534 1533 1534 1534 1534 1533 1532 1532 1531 1531 1530 1529
1517 1518 1519 1520 1521 1522 1523 1524 1525 1526 1526 1527 1528 1529 1529 1530 1530 1530 1530 1531 1531 1532 1533 1532 1533 1533 1533 1532 1532 1532 1532 1532 1531 1531 1531 1531 1530 1530 1530 1529 1529 1528 1527